Regional Weather Roundup
Issued by NWS

Home | Current Version | Previous Version | Graphics & Text | Print | Product List | Glossary On
Versions: 1 2 3 4 5 6 7 8 9 10 11 12 13 14 15 16 17 18 19 20 21 22 23 24 25 26 27 28 29 30 31 32 33 34 35 36 37 38 39 40 41 42 43 44 45 46 47 48 49 50
000
ASUS43 KFSD 182202
RWRSD

WEATHER ROUNDUP FOR SOUTH DAKOTA
NATIONAL WEATHER SERVICE SIOUX FALLS SD
500 PM CDT SAT APR 18 2015

NOTE: "FAIR" INDICATES FEW OR NO CLOUDS BELOW 12,000 FEET WITH NO
SIGNIFICANT WEATHER AND/OR OBSTRUCTIONS TO VISIBILITY.


SDZ001>005-009-010-012>017-182300-
NORTHWEST AND NORTH CENTRAL SOUTH DAKOTA

CITY           SKY/WX    TMP DP  RH WIND       PRES   REMARKS
BUFFALO          N/A     52  38  58 SE14      29.86F
FAITH            N/A     48  44  86 N13       29.90F
MOBRIDGE       LGT RAIN  58  40  51 NW7       29.89F
$$

SDZ012>016-024>037-041>051-057-063-072>074-182300-
SOUTHWEST AND SOUTH CENTRAL SOUTH DAKOTA

CITY           SKY/WX    TMP DP  RH WIND       PRES   REMARKS
RAPID CTY ARPT CLOUDY    48  46  93 N10       29.91F
PIERRE         CLOUDY    52  46  80 NW5       29.87S
CUSTER         CLOUDY    45  39  79 N6        29.91S
ELLSWORTH AFB  CLOUDY    46  46 100 N10       29.91
PHILIP         CLOUDY    55  47  74 NW7       29.88F
PINE RIDGE     PTSUNNY   54  46  74 N13       29.88F
WINNER         CLOUDY    60  53  77 CALM      29.83F
$$

SDZ004>011-016>023-039-040-182300-
NORTHEAST SOUTH DAKOTA

CITY           SKY/WX    TMP DP  RH WIND       PRES   REMARKS
ABERDEEN       CLOUDY    70  31  23 SE3       29.87F
WATERTOWN      CLOUDY    68  36  30 E6        29.86F
BROOKINGS      CLOUDY    61  55  82 SE10      29.88F
SISSETON         N/A     73  25  16 S16       29.86F
$$

SDZ017-020-022-023-036>040-048>070-182300-
SOUTHEAST SOUTH DAKOTA

CITY           SKY/WX    TMP DP  RH WIND       PRES   REMARKS
SIOUX FALLS    LGT RAIN  58  56  93 SE15      29.86S
HURON          RAIN      55  53  93 E9        29.87F FOG
MITCHELL       LGT RAIN  56  55  97 E6        29.86F FOG
YANKTON        CLOUDY    63  55  77 E12       29.82F
$$

ABBREVIATIONS USED IN REMARKS
   TC - TEMPERATURE IN CELSIUS
  WCI - WIND CHILL INDEX
   HX - HEAT INDEX
  VSB - VISIBILITY




USA.gov is the U.S. government's official web portal to all federal, state and local government web resources and services.